Location: Assche-ter-Heiden
(50.9174°N, 4.1574°E)
Time: 09:54:36
(UTC+00:00)

ADEOS Rocket - Pass Details

Date: 20 January 2020
Orbit: 859 x 1306 km, 98.7° (Epoch: 17 February)

Event Time Altitude Azimuth Distance (km) Brightness Sun altitude
Rises 06:23:13 0° 183° (S) 3,432 6.1 -11.2°
Reaches altitude 10° 06:25:41 10° 190° (S) 2,491 5.3 -10.8°
Maximum altitude 06:30:54 45° 262° (W) 1,173 3.1 -10.0°
Drops below altitude 10° 06:36:19 10° 335° (NNW) 2,585 4.8 -9.2°
Sets 06:38:55 0° 342° (NNW) 3,575 5.6 -8.8°
